Time,TemperatureF,DewpointF,PressureIn,WindDirection,WindDirectionDegrees,WindSpeedMPH,WindSpeedGustMPH,Humidity,HourlyPrecipIn,Conditions,Clouds,dailyrainin,SoftwareType,DateUTC
2013-03-13 00:12:00,35.6,33.0,30.07,East,100,1.0,3.0,89,0.00,,,0.00,weatherlink.com 1.10,2013-03-13 04:12:00,
2013-03-13 00:26:00,35.1,33.0,30.07,SW,224,0.0,2.0,90,0.00,,,0.00,weatherlink.com 1.10,2013-03-13 04:26:00,
2013-03-13 00:41:00,35.0,33.0,30.07,WSW,243,0.0,1.0,91,0.00,,,0.00,weatherlink.com 1.10,2013-03-13 04:41:00,
2013-03-13 00:56:00,34.8,33.0,30.07,SW,235,3.0,3.0,91,0.00,,,0.00,weatherlink.com 1.10,2013-03-13 04:56:00,
2013-03-13 01:12:00,34.8,32.0,30.07,SW,226,0.0,4.0,90,0.00,,,0.00,weatherlink.com 1.10,2013-03-13 05:12:00,
2013-03-13 01:27:00,34.5,32.0,30.06,SW,229,1.0,4.0,91,0.00,,,0.00,weatherlink.com 1.10,2013-03-13 05:27:00,
2013-03-13 01:42:00,34.1,32.0,30.06,SW,234,0.0,4.0,91,0.00,,,0.00,weatherlink.com 1.10,2013-03-13 05:42:00,
2013-03-13 01:57:00,33.8,32.0,30.06,SW,232,0.0,2.0,92,0.00,,,0.00,weatherlink.com 1.10,2013-03-13 05:57:00,
2013-03-13 02:12:00,33.4,31.0,30.05,South,182,1.0,3.0,92,0.00,,,0.00,weatherlink.com 1.10,2013-03-13 06:12:00,
2013-03-13 02:27:00,33.2,31.0,30.05,SW,225,0.0,2.0,93,0.00,,,0.00,weatherlink.com 1.10,2013-03-13 06:27:00,
2013-03-13 02:42:00,33.0,31.0,30.05,SSW,211,0.0,2.0,92,0.00,,,0.00,weatherlink.com 1.10,2013-03-13 06:42:00,
2013-03-13 02:57:00,33.1,31.0,30.05,SSW,211,2.0,4.0,92,0.00,,,0.00,weatherlink.com 1.10,2013-03-13 06:57:00,
2013-03-13 03:12:00,33.4,31.0,30.04,SW,232,2.0,4.0,91,0.00,,,0.00,weatherlink.com 1.10,2013-03-13 07:12:00,
2013-03-13 03:27:00,33.7,31.0,30.04,SW,229,2.0,4.0,90,0.00,,,0.00,weatherlink.com 1.10,2013-03-13 07:27:00,
2013-03-13 03:42:00,33.7,31.0,30.03,SSW,210,2.0,3.0,90,0.00,,,0.00,weatherlink.com 1.10,2013-03-13 07:42:00,
2013-03-13 03:57:00,33.8,31.0,30.03,SW,214,1.0,3.0,89,0.00,,,0.00,weatherlink.com 1.10,2013-03-13 07:57:00,
2013-03-13 04:12:00,33.8,31.0,30.02,WSW,245,1.0,4.0,89,0.00,,,0.00,weatherlink.com 1.10,2013-03-13 08:12:00,
2013-03-13 04:27:00,33.7,31.0,30.02,SSW,198,3.0,5.0,89,0.00,,,0.00,weatherlink.com 1.10,2013-03-13 08:27:00,
2013-03-13 04:42:00,33.4,31.0,30.02,WSW,242,1.0,7.0,90,0.00,,,0.00,weatherlink.com 1.10,2013-03-13 08:42:00,
2013-03-13 04:57:00,31.9,30.0,30.02,West,259,1.0,5.0,92,0.00,,,0.00,weatherlink.com 1.10,2013-03-13 08:57:00,
2013-03-13 05:12:00,31.4,30.0,30.02,South,169,0.0,4.0,93,0.00,,,0.00,weatherlink.com 1.10,2013-03-13 09:12:00,
2013-03-13 05:27:00,31.5,30.0,30.02,SSW,207,1.0,3.0,94,0.00,,,0.00,weatherlink.com 1.10,2013-03-13 09:27:00,
2013-03-13 05:42:00,31.8,30.0,30.03,SW,219,2.0,4.0,93,0.00,,,0.00,weatherlink.com 1.10,2013-03-13 09:42:00,
2013-03-13 05:57:00,32.0,30.0,30.02,SW,225,1.0,5.0,91,0.00,,,0.00,weatherlink.com 1.10,2013-03-13 09:57:00,
2013-03-13 06:12:00,32.4,30.0,30.03,West,267,0.0,8.0,89,0.00,,,0.00,weatherlink.com 1.10,2013-03-13 10:12:00,
2013-03-13 06:27:00,31.3,29.0,30.04,NNE,26,2.0,5.0,91,0.00,,,0.00,weatherlink.com 1.10,2013-03-13 10:27:00,
2013-03-13 06:42:00,30.6,28.0,30.05,NNE,30,2.0,4.0,91,0.00,,,0.00,weatherlink.com 1.10,2013-03-13 10:42:00,
2013-03-13 06:57:00,29.8,27.0,30.06,NNE,15,2.0,9.0,90,0.00,,,0.00,weatherlink.com 1.10,2013-03-13 10:57:00,
2013-03-13 07:12:00,29.3,26.0,30.07,NE,34,1.0,3.0,86,0.00,,,0.00,weatherlink.com 1.10,2013-03-13 11:12:00,
2013-03-13 07:27:00,29.2,24.0,30.07,SW,220,0.0,5.0,82,0.00,,,0.00,weatherlink.com 1.10,2013-03-13 11:27:00,
2013-03-13 07:42:00,29.1,22.0,30.08,East,80,2.0,5.0,76,0.00,,,0.00,weatherlink.com 1.10,2013-03-13 11:42:00,
2013-03-13 07:57:00,29.0,21.0,30.09,ENE,68,4.0,7.0,72,0.00,,,0.00,weatherlink.com 1.10,2013-03-13 11:57:00,
2013-03-13 08:12:00,28.6,20.0,30.09,North,10,3.0,7.0,71,0.00,,,0.00,weatherlink.com 1.10,2013-03-13 12:12:00,
2013-03-13 08:27:00,28.1,20.0,30.10,North,5,3.0,6.0,72,0.00,,,0.00,weatherlink.com 1.10,2013-03-13 12:27:00,
2013-03-13 08:42:00,27.9,20.0,30.11,NW,306,2.0,6.0,72,0.00,,,0.00,weatherlink.com 1.10,2013-03-13 12:42:00,
2013-03-13 08:57:00,28.0,20.0,30.11,NW,310,1.0,5.0,71,0.00,,,0.00,weatherlink.com 1.10,2013-03-13 12:57:00,
2013-03-13 09:12:00,28.2,20.0,30.12,West,272,1.0,6.0,70,0.00,,,0.00,weatherlink.com 1.10,2013-03-13 13:12:00,
2013-03-13 09:27:00,28.7,20.0,30.13,ESE,119,1.0,6.0,69,0.00,,,0.00,weatherlink.com 1.10,2013-03-13 13:27:00,
2013-03-13 09:43:00,29.1,20.0,30.13,SW,217,2.0,8.0,68,0.00,,,0.00,weatherlink.com 1.10,2013-03-13 13:43:00,
2013-03-13 09:58:00,29.3,20.0,30.14,NNE,30,2.0,9.0,69,0.00,,,0.00,weatherlink.com 1.10,2013-03-13 13:58:00,
2013-03-13 10:13:00,29.7,21.0,30.15,SW,227,1.0,6.0,71,0.00,,,0.00,weatherlink.com 1.10,2013-03-13 14:13:00,
2013-03-13 10:28:00,30.0,22.0,30.15,South,184,1.0,11.0,71,0.00,,,0.00,weatherlink.com 1.10,2013-03-13 14:28:00,
2013-03-13 10:43:00,30.4,21.0,30.16,NNE,15,3.0,12.0,69,0.00,,,0.00,weatherlink.com 1.10,2013-03-13 14:43:00,
2013-03-13 10:58:00,30.7,21.0,30.16,NNW,328,1.0,8.0,68,0.00,,,0.00,weatherlink.com 1.10,2013-03-13 14:58:00,
2013-03-13 11:13:00,30.5,21.0,30.17,North,5,1.0,8.0,68,0.00,,,0.00,weatherlink.com 1.10,2013-03-13 15:13:00,
2013-03-13 11:28:00,31.7,21.0,30.17,NW,317,1.0,6.0,66,0.00,,,0.00,weatherlink.com 1.10,2013-03-13 15:28:00,
2013-03-13 11:43:00,31.6,22.0,30.18,South,177,1.0,7.0,68,0.00,,,0.00,weatherlink.com 1.10,2013-03-13 15:43:00,
2013-03-13 11:58:00,31.5,21.0,30.19,WSW,255,1.0,7.0,66,0.00,,,0.00,weatherlink.com 1.10,2013-03-13 15:58:00,
2013-03-13 12:13:00,30.7,22.0,30.19,North,5,3.0,8.0,70,0.00,,,0.00,weatherlink.com 1.10,2013-03-13 16:13:00,
2013-03-13 12:28:00,31.5,23.0,30.20,SSW,201,0.0,6.0,70,0.00,,,0.00,weatherlink.com 1.10,2013-03-13 16:28:00,
2013-03-13 12:43:00,31.1,24.0,30.20,NE,55,4.0,5.0,76,0.00,,,0.00,weatherlink.com 1.10,2013-03-13 16:43:00,
2013-03-13 12:58:00,32.0,23.0,30.21,East,100,1.0,7.0,69,0.00,,,0.00,weatherlink.com 1.10,2013-03-13 16:58:00,
2013-03-13 13:13:00,31.7,24.0,30.21,SSE,163,1.0,3.0,73,0.00,,,0.00,weatherlink.com 1.10,2013-03-13 17:13:00,
2013-03-13 13:28:00,30.3,24.0,30.22,North,5,3.0,7.0,77,0.00,,,0.00,weatherlink.com 1.10,2013-03-13 17:28:00,
2013-03-13 13:43:00,30.5,24.0,30.21,SE,134,0.0,6.0,77,0.00,,,0.00,weatherlink.com 1.10,2013-03-13 17:43:00,
2013-03-13 13:58:00,31.9,23.0,30.21,SW,232,0.0,7.0,69,0.00,,,0.00,weatherlink.com 1.10,2013-03-13 17:58:00,
2013-03-13 14:13:00,32.5,21.0,30.21,WNW,295,1.0,7.0,62,0.00,,,0.00,weatherlink.com 1.10,2013-03-13 18:13:00,
2013-03-13 14:28:00,32.1,23.0,30.22,SSW,192,2.0,11.0,70,0.00,,,0.00,weatherlink.com 1.10,2013-03-13 18:28:00,
2013-03-13 14:43:00,33.4,24.0,30.22,SW,223,1.0,7.0,68,0.00,,,0.00,weatherlink.com 1.10,2013-03-13 18:43:00,
2013-03-13 14:58:00,34.0,23.0,30.22,WSW,254,1.0,6.0,65,0.00,,,0.00,weatherlink.com 1.10,2013-03-13 18:58:00,
2013-03-13 15:13:00,31.1,26.0,30.22,SSE,147,2.0,9.0,81,0.00,,,0.00,weatherlink.com 1.10,2013-03-13 19:13:00,
2013-03-13 15:28:00,31.9,26.0,30.23,SSW,206,3.0,7.0,80,0.00,,,0.00,weatherlink.com 1.10,2013-03-13 19:28:00,
2013-03-13 15:43:00,33.2,26.0,30.23,NNE,17,3.0,7.0,75,0.00,,,0.00,weatherlink.com 1.10,2013-03-13 19:43:00,
2013-03-13 15:58:00,33.1,24.0,30.23,NE,41,2.0,5.0,69,0.00,,,0.00,weatherlink.com 1.10,2013-03-13 19:58:00,
2013-03-13 16:13:00,31.4,24.0,30.24,North,355,3.0,6.0,74,0.00,,,0.00,weatherlink.com 1.10,2013-03-13 20:13:00,
2013-03-13 16:28:00,31.6,25.0,30.24,SSE,148,0.0,6.0,75,0.00,,,0.00,weatherlink.com 1.10,2013-03-13 20:28:00,
2013-03-13 16:43:00,33.2,23.0,30.25,SSE,155,2.0,13.0,66,0.00,,,0.00,weatherlink.com 1.10,2013-03-13 20:43:00,
2013-03-13 16:58:00,33.8,24.0,30.25,North,5,4.0,7.0,67,0.00,,,0.00,weatherlink.com 1.10,2013-03-13 20:58:00,
2013-03-13 17:13:00,33.3,23.0,30.25,NE,49,1.0,6.0,66,0.00,,,0.00,weatherlink.com 1.10,2013-03-13 21:13:00,
2013-03-13 17:28:00,32.8,23.0,30.26,North,5,2.0,7.0,66,0.00,,,0.00,weatherlink.com 1.10,2013-03-13 21:28:00,
2013-03-13 17:43:00,31.8,24.0,30.26,NNE,15,2.0,7.0,74,0.00,,,0.00,weatherlink.com 1.10,2013-03-13 21:43:00,
2013-03-13 17:58:00,31.6,22.0,30.26,NNW,348,5.0,10.0,69,0.00,,,0.00,weatherlink.com 1.10,2013-03-13 21:58:00,
2013-03-13 18:13:00,31.8,24.0,30.27,NNE,17,6.0,7.0,72,0.00,,,0.00,weatherlink.com 1.10,2013-03-13 22:13:00,
2013-03-13 18:28:00,31.6,24.0,30.27,NNE,30,1.0,7.0,72,0.00,,,0.00,weatherlink.com 1.10,2013-03-13 22:28:00,
2013-03-13 18:43:00,31.4,24.0,30.28,NNE,19,2.0,5.0,73,0.00,,,0.00,weatherlink.com 1.10,2013-03-13 22:43:00,
2013-03-13 18:58:00,31.4,23.0,30.28,East,80,1.0,4.0,70,0.00,,,0.00,weatherlink.com 1.10,2013-03-13 22:58:00,
2013-03-13 19:13:00,31.2,23.0,30.29,NNW,339,2.0,4.0,72,0.00,,,0.00,weatherlink.com 1.10,2013-03-13 23:13:00,
2013-03-13 19:28:00,30.7,23.0,30.29,West,269,2.0,5.0,74,0.00,,,0.00,weatherlink.com 1.10,2013-03-13 23:28:00,
2013-03-13 19:43:00,30.3,24.0,30.29,North,360,1.0,5.0,77,0.00,,,0.00,weatherlink.com 1.10,2013-03-13 23:43:00,
2013-03-13 19:59:00,30.4,23.0,30.30,NNE,24,3.0,5.0,75,0.00,,,0.00,weatherlink.com 1.10,2013-03-13 23:59:00,
2013-03-13 20:14:00,30.3,24.0,30.31,NNE,24,1.0,4.0,77,0.00,,,0.00,weatherlink.com 1.10,2013-03-14 00:14:00,
2013-03-13 20:29:00,30.2,24.0,30.31,NE,47,3.0,6.0,78,0.00,,,0.00,weatherlink.com 1.10,2013-03-14 00:29:00,
2013-03-13 20:44:00,30.1,24.0,30.31,South,178,2.0,5.0,78,0.00,,,0.00,weatherlink.com 1.10,2013-03-14 00:44:00,
2013-03-13 20:59:00,29.9,24.0,30.31,North,11,3.0,7.0,78,0.00,,,0.00,weatherlink.com 1.10,2013-03-14 00:59:00,
2013-03-13 21:14:00,29.8,23.0,30.31,SSW,205,1.0,4.0,77,0.00,,,0.00,weatherlink.com 1.10,2013-03-14 01:14:00,
2013-03-13 21:29:00,29.7,24.0,30.32,SSW,198,0.0,3.0,78,0.00,,,0.00,weatherlink.com 1.10,2013-03-14 01:29:00,
2013-03-13 21:44:00,29.6,24.0,30.32,ENE,70,0.0,5.0,80,0.00,,,0.00,weatherlink.com 1.10,2013-03-14 01:44:00,
2013-03-13 21:59:00,29.6,24.0,30.32,SW,234,0.0,4.0,81,0.00,,,0.00,weatherlink.com 1.10,2013-03-14 01:59:00,
2013-03-13 22:14:00,29.4,24.0,30.32,SSE,148,0.0,3.0,80,0.00,,,0.00,weatherlink.com 1.10,2013-03-14 02:14:00,
2013-03-13 22:29:00,29.2,24.0,30.32,SW,222,0.0,2.0,80,0.00,,,0.00,weatherlink.com 1.10,2013-03-14 02:29:00,
2013-03-13 22:44:00,29.0,24.0,30.33,South,188,1.0,3.0,81,0.00,,,0.00,weatherlink.com 1.10,2013-03-14 02:44:00,
2013-03-13 22:59:00,28.8,24.0,30.33,SSE,165,0.0,4.0,81,0.00,,,0.00,weatherlink.com 1.10,2013-03-14 02:59:00,
2013-03-13 23:14:00,28.8,24.0,30.34,SW,215,3.0,3.0,82,0.00,,,0.00,weatherlink.com 1.10,2013-03-14 03:14:00,
2013-03-13 23:45:00,28.5,24.0,30.34,SSW,194,0.0,3.0,82,0.00,,,0.00,weatherlink.com 1.10,2013-03-14 03:45:00,